Weather History for St. Paul, MN

Change the Weather History Date:

Tuesday, October 9, 2012

  Actual Average Record
Temperature  
Mean Temperature 45 °F -  
Max Temperature 52 °F 61 °F 84 °F (2011)
Min Temperature 39 °F 40 °F 25 °F (2000)
Degree Days  
Heating Degree Days 20    
Moisture  
Dew Point 32 °F    
Average Humidity 58    
Maximum Humidity 80    
Minimum Humidity 41    
Precipitation  
Precipitation 0.02 in - - ()
Sea Level Pressure  
Sea Level Pressure 29.83 in    
Wind  
Wind Speed 8 mph (West)    
Max Wind Speed 24 mph    
Max Gust Speed 36 mph    
Visibility 10 miles    
Events Rain    
Averages and records for this station are not official NWS values.
T = Trace of Precipitation, MM = Missing Value Source: NWS Daily Summary

Daily Weather History Graph

Daily Weather History Graph

Search for Another Location

Airport:

Trip Planner

Search our weather history database for the weather conditions in past years. The results will help you decide how hot, cold, wet, or windy it might be!

Date:

Astronomy

Oct. 09, 2012 Rise Set
Actual Time 7:20 AM CDT 6:37 PM CDT
Civil Twilight 6:51 AM CDT 7:06 PM CDT
Nautical Twilight 6:17 AM CDT 7:40 PM CDT
Astronomical Twilight 5:43 AM CDT 8:14 PM CDT
Moon 12:42 AM CDT (10/9) 3:18 PM CDT (10/9)
Length of Visible Light 12h 14m
Length of Day
11h 16m
Last Quarter, 36% of the Moon is Illuminated
Oct 9
Last Quarter
Oct 15
New
Oct 21
First Quarter
Oct 29
Full
Nov 6
Last Quarter

Hourly Weather History & Observations

Time (CDT) Temp. Windchill Dew Point Humidity Pressure Visibility Wind Dir Wind Speed Gust Speed Precip Events Conditions
12:53 AM 51.1 °F - 37.0 °F 59% 29.75 in 10.0 mi Calm Calm - N/A   Overcast
1:53 AM 48.9 °F - 39.0 °F 69% 29.75 in 10.0 mi Calm Calm - N/A   Clear
2:53 AM 48.2 °F - 39.2 °F 71% 29.75 in 10.0 mi Calm Calm - N/A   Overcast
3:53 AM 48.9 °F - 39.0 °F 69% 29.73 in 10.0 mi Calm Calm - N/A   Overcast
4:53 AM 48.9 °F - 39.9 °F 71% 29.73 in 10.0 mi Calm Calm - N/A   Overcast
5:53 AM 50.0 °F - 37.9 °F 63% 29.74 in 10.0 mi WSW 5.8 mph - N/A   Mostly Cloudy
6:53 AM 50.0 °F - 37.9 °F 63% 29.74 in 10.0 mi West 8.1 mph - N/A   Overcast
7:53 AM 48.0 °F - 34.0 °F 58% 29.78 in 10.0 mi NW 18.4 mph 25.3 mph 0.00 in Rain Light Rain
8:53 AM 44.1 °F 37.7 °F 37.9 °F 79% 29.81 in 8.0 mi WNW 12.7 mph - 0.00 in Rain Light Rain
9:53 AM 44.1 °F 40.8 °F 37.9 °F 79% 29.81 in 10.0 mi WSW 5.8 mph - 0.02 in Rain Light Rain
10:53 AM 45.0 °F 39.7 °F 39.0 °F 80% 29.80 in 10.0 mi WSW 10.4 mph - 0.00 in   Mostly Cloudy
11:53 AM 48.0 °F - 37.0 °F 66% 29.80 in 10.0 mi West 9.2 mph 19.6 mph N/A   Partly Cloudy
12:53 PM 50.0 °F - 27.0 °F 41% 29.79 in 10.0 mi West 17.3 mph 33.4 mph N/A   Mostly Cloudy
1:53 PM 50.0 °F - 27.0 °F 41% 29.79 in 10.0 mi West 24.2 mph 29.9 mph N/A   Overcast
2:53 PM 48.0 °F - 27.0 °F 44% 29.81 in 10.0 mi West 19.6 mph 28.8 mph N/A   Overcast
3:53 PM 48.9 °F - 27.0 °F 43% 29.82 in 10.0 mi WNW 17.3 mph 25.3 mph N/A   Overcast
4:53 PM 48.0 °F - 28.9 °F 48% 29.83 in 10.0 mi West 18.4 mph 26.5 mph N/A   Overcast
5:53 PM 46.0 °F 38.5 °F 28.9 °F 51% 29.87 in 10.0 mi WNW 19.6 mph 28.8 mph N/A   Mostly Cloudy
6:53 PM 44.1 °F 36.8 °F 28.0 °F 53% 29.91 in 10.0 mi West 16.1 mph 26.5 mph N/A   Partly Cloudy
7:53 PM 44.1 °F 37.1 °F 24.1 °F 45% 29.93 in 10.0 mi WNW 15.0 mph 25.3 mph N/A   Overcast
8:53 PM 44.1 °F 35.9 °F 24.1 °F 45% 29.95 in 10.0 mi WNW 19.6 mph 27.6 mph N/A   Overcast
9:53 PM 42.1 °F 32.3 °F 24.1 °F 49% 29.97 in 10.0 mi WNW 24.2 mph 35.7 mph N/A   Overcast
10:53 PM 39.9 °F 32.5 °F 24.1 °F 53% 29.99 in 10.0 mi NW 12.7 mph - N/A   Partly Cloudy
11:53 PM 39.0 °F 31.8 °F 25.0 °F 57% 30.00 in 10.0 mi WNW 11.5 mph - N/A   Clear